LiveATC.Net - Listen to live air traffic control over the Internet!


ICAO: KHNB  IATA: HNB   Airport: Huntingburg Airport
City: Huntingburg   State/Province: Indiana
Country: United States   Continent: North America
KHNB METAR Weather: KHNB 152256Z AUTO 23008KT 10SM -RA FEW029 BKN060 OVC110 23/21 A3008 RMK AO2 WSHFT 2236 RAE2159B43 SLP182 P0000 T02280206
KHNB Flight Activity (FlightAware)
KHNB Airport Info   (iFlightPlanner)
KHNB VFR Sectional Chart   (iFlightPlanner) 
KHNB IFR Low Chart   (iFlightPlanner) 

KHNB CTAF
Feed Status: UP   Listeners: 0
Listen in your browser - HTML5 player (in browser, HTML5)
Click here to listen with your own player (launches your MP3 player)
KHNB CTAF Audio Archives
FacilityFrequency
Huntingburg CTAF122.800

NOTICE

Unauthorized use prohibited. See LiveATC.net Terms of Service


Find LiveATC Audio Streams


Airport/ARTCC Code

Frequency Search
(e.g., 124.400, 128.75)
Site-wide search
 


Browse LiveATC Feeds
Top 50 LiveATC Feeds
LiveATC Feed Map
Bad Weather Areas

LiveATC FAQ
Offer LiveATC feed
Contact LiveATC.net
Press Inquiries

LiveATC on iPhone
LiveATC on Android

Windows Phone
Windows 8/10

LiveATC Mobile
(Mobile browser)

ATC Audio Archives
Interesting Recordings

LiveATC Forums


Home Page
About LiveATC.net
Make a Donation
Terms of Use
Privacy Policy

Canadian Air Freqs

AIRMETs/SIGMETs

FAA Airport Status
Nat'l Airspace Status
Arrival Demand Charts


Server Software By:
Icecast.org
Liquidsoap